GLO1ND SBCY-SBSP

Flight info

Callsign GLO1ND
Flight time 1h 37m
Altitude 37000
Route DIKUN DCT ASDOV DCT UTLOT
Aircraft B38M/M-SDE1FGHILORVWXY/HB1

Departure

Time 2026-04-15 14:44
Airport Várzea Grande–Marechal Rondon International Airport (SBCY)

Arrival

Time 2026-04-15 16:22
Airport Congonhas–Deputado Freitas Nobre Airport (SBSP)
Time Latitude Longitude Altitude Speed Heading
2026-04-15 14:44 -15.87583 -56.20989 16644 ft 300 kts 168°
2026-04-15 14:44 -15.89516 -56.20164 17201 ft 303 kts 148°
2026-04-15 14:44 -15.91103 -56.18722 17741 ft 306 kts 131°
2026-04-15 14:44 -15.92422 -56.16974 18267 ft 308 kts 128°
2026-04-15 14:45 -15.93690 -56.15158 18728 ft 313 kts 126°
2026-04-15 14:45 -15.94934 -56.13296 19399 ft 314 kts 125°
2026-04-15 14:45 -15.96187 -56.11375 19758 ft 329 kts 124°
2026-04-15 14:45 -15.97496 -56.09341 19943 ft 348 kts 124°
2026-04-15 14:46 -15.98870 -56.07185 20076 ft 367 kts 124°
2026-04-15 14:46 -16.00306 -56.04920 20185 ft 384 kts 124°
2026-04-15 14:46 -16.01802 -56.02554 20409 ft 397 kts 123°
2026-04-15 14:46 -16.03320 -56.00151 20960 ft 398 kts 123°
2026-04-15 14:47 -16.04843 -55.97739 21473 ft 401 kts 123°
2026-04-15 14:47 -16.06380 -55.95305 21968 ft 405 kts 123°
2026-04-15 14:47 -16.07930 -55.92849 22466 ft 407 kts 123°
2026-04-15 14:47 -16.09488 -55.90379 22959 ft 410 kts 123°
2026-04-15 14:48 -16.11057 -55.87892 23433 ft 413 kts 123°
2026-04-15 14:48 -16.12636 -55.85386 23822 ft 416 kts 123°
2026-04-15 14:48 -16.14207 -55.82893 24180 ft 419 kts 123°
2026-04-15 14:48 -16.15811 -55.80347 24526 ft 423 kts 123°
2026-04-15 14:49 -16.17426 -55.77783 24888 ft 426 kts 122°
2026-04-15 14:49 -16.19057 -55.75191 25246 ft 429 kts 122°
2026-04-15 14:49 -16.20698 -55.72583 25604 ft 432 kts 122°
2026-04-15 14:49 -16.22351 -55.69957 25971 ft 436 kts 122°
2026-04-15 14:50 -16.24015 -55.67310 26314 ft 439 kts 122°
2026-04-15 14:50 -16.25693 -55.64640 26672 ft 442 kts 122°
2026-04-15 14:50 -16.27381 -55.61955 27027 ft 445 kts 122°
2026-04-15 14:50 -16.29079 -55.59252 27381 ft 448 kts 122°
2026-04-15 14:51 -16.30787 -55.56531 27727 ft 451 kts 122°
2026-04-15 14:51 -16.32509 -55.53788 28075 ft 454 kts 122°
2026-04-15 14:51 -16.34239 -55.51029 28410 ft 457 kts 122°
2026-04-15 14:51 -16.35981 -55.48253 28740 ft 460 kts 122°
2026-04-15 14:52 -16.37734 -55.45456 29075 ft 463 kts 122°
2026-04-15 14:52 -16.39500 -55.42638 29384 ft 466 kts 122°
2026-04-15 14:52 -16.41276 -55.39803 29695 ft 469 kts 122°
2026-04-15 14:52 -16.43064 -55.36948 30006 ft 472 kts 122°
2026-04-15 14:53 -16.44863 -55.34075 30264 ft 475 kts 122°
2026-04-15 14:53 -16.46669 -55.31190 30549 ft 477 kts 122°
2026-04-15 14:53 -16.48462 -55.28323 30812 ft 479 kts 122°
2026-04-15 14:53 -16.50287 -55.25404 31090 ft 481 kts 122°
2026-04-15 14:54 -16.52117 -55.22475 31354 ft 484 kts 122°
2026-04-15 14:54 -16.53961 -55.19523 31616 ft 486 kts 123°
2026-04-15 14:54 -16.55809 -55.16564 31877 ft 488 kts 123°
2026-04-15 14:54 -16.57664 -55.13591 32131 ft 491 kts 123°
2026-04-15 14:55 -16.59530 -55.10601 32382 ft 493 kts 123°
2026-04-15 14:55 -16.60770 -55.08612 32573 ft 494 kts 123°
2026-04-15 14:55 -16.63273 -55.04597 33034 ft 494 kts 123°
2026-04-15 14:55 -16.65146 -55.01592 33410 ft 493 kts 124°
2026-04-15 14:56 -16.67012 -54.98596 33809 ft 492 kts 124°
2026-04-15 14:56 -16.68242 -54.96619 34051 ft 492 kts 124°
2026-04-15 14:56 -16.70108 -54.93621 34386 ft 491 kts 124°
2026-04-15 14:56 -16.71967 -54.90632 34744 ft 490 kts 124°
2026-04-15 14:57 -16.73825 -54.87646 35087 ft 489 kts 124°
2026-04-15 14:57 -16.75673 -54.84671 35418 ft 489 kts 124°
2026-04-15 14:57 -16.77522 -54.81695 35748 ft 488 kts 125°
2026-04-15 14:57 -16.79365 -54.78729 36087 ft 487 kts 125°
2026-04-15 14:58 -16.81203 -54.75767 36424 ft 486 kts 125°
2026-04-15 14:58 -16.83039 -54.72808 36750 ft 485 kts 125°
2026-04-15 14:58 -16.84869 -54.69858 36966 ft 485 kts 125°
2026-04-15 14:59 -16.88515 -54.63975 36967 ft 480 kts 125°
2026-04-15 14:59 -16.92143 -54.58118 36961 ft 481 kts 125°
2026-04-15 15:00 -16.95774 -54.52251 36960 ft 481 kts 125°
2026-04-15 15:00 -16.99405 -54.46378 36965 ft 481 kts 125°
2026-04-15 15:01 -17.03036 -54.40500 36963 ft 482 kts 125°
2026-04-15 15:01 -17.06670 -54.34614 36964 ft 482 kts 125°
2026-04-15 15:02 -17.10304 -54.28721 36965 ft 482 kts 125°
2026-04-15 15:02 -17.13914 -54.22862 36973 ft 483 kts 125°
2026-04-15 15:03 -17.17550 -54.16956 36967 ft 483 kts 125°
2026-04-15 15:03 -17.21187 -54.11046 36978 ft 484 kts 126°
2026-04-15 15:04 -17.24824 -54.05128 36982 ft 484 kts 126°
2026-04-15 15:04 -17.28464 -53.99202 36973 ft 484 kts 126°
2026-04-15 15:05 -17.32459 -53.93592 36982 ft 481 kts 132°
2026-04-15 15:05 -17.36687 -53.88177 36979 ft 481 kts 133°
2026-04-15 15:06 -17.43068 -53.80038 36977 ft 482 kts 133°
2026-04-15 15:06 -17.47314 -53.74616 36970 ft 482 kts 133°
2026-04-15 15:07 -17.51574 -53.69172 36970 ft 483 kts 133°
2026-04-15 15:07 -17.55832 -53.63727 36973 ft 483 kts 133°
2026-04-15 15:08 -17.60089 -53.58279 36973 ft 484 kts 133°
2026-04-15 15:08 -17.64358 -53.52810 36975 ft 484 kts 133°
2026-04-15 15:09 -17.68621 -53.47344 36990 ft 484 kts 133°
2026-04-15 15:09 -17.72882 -53.41877 36982 ft 484 kts 133°
2026-04-15 15:10 -17.77149 -53.36397 36988 ft 484 kts 133°
2026-04-15 15:10 -17.81411 -53.30920 36984 ft 485 kts 133°
2026-04-15 15:11 -17.85675 -53.25435 36985 ft 485 kts 133°
2026-04-15 15:11 -17.89937 -53.19949 36987 ft 485 kts 133°
2026-04-15 15:12 -17.94201 -53.14455 36989 ft 485 kts 133°
2026-04-15 15:12 -17.98465 -53.08956 36982 ft 485 kts 133°
2026-04-15 15:13 -18.02705 -53.03484 36991 ft 486 kts 133°
2026-04-15 15:13 -18.06967 -52.97978 36991 ft 486 kts 133°
2026-04-15 15:14 -18.11231 -52.92465 36992 ft 486 kts 133°
2026-04-15 15:14 -18.15499 -52.86943 36989 ft 486 kts 133°
2026-04-15 15:15 -18.19759 -52.81426 36993 ft 486 kts 133°
2026-04-15 15:15 -18.24018 -52.75905 36994 ft 486 kts 133°
2026-04-15 15:16 -18.28286 -52.70369 36992 ft 487 kts 133°
2026-04-15 15:16 -18.32548 -52.64835 36991 ft 487 kts 133°
2026-04-15 15:17 -18.36812 -52.59294 36992 ft 487 kts 133°
2026-04-15 15:17 -18.41068 -52.53757 36995 ft 487 kts 133°
2026-04-15 15:18 -18.45331 -52.48209 36995 ft 487 kts 133°
2026-04-15 15:18 -18.49589 -52.42661 36989 ft 487 kts 133°
2026-04-15 15:19 -18.53839 -52.37118 36990 ft 487 kts 133°
2026-04-15 15:19 -18.58097 -52.31560 36986 ft 487 kts 133°
2026-04-15 15:20 -18.62354 -52.25999 36990 ft 487 kts 133°
2026-04-15 15:20 -18.66575 -52.20479 36988 ft 487 kts 133°
2026-04-15 15:21 -18.70825 -52.14919 36987 ft 487 kts 133°
2026-04-15 15:21 -18.75076 -52.09350 36988 ft 487 kts 133°
2026-04-15 15:22 -18.79321 -52.03784 36982 ft 487 kts 133°
2026-04-15 15:22 -18.83562 -51.98219 36984 ft 487 kts 133°
2026-04-15 15:23 -18.87802 -51.92651 36982 ft 487 kts 133°
2026-04-15 15:23 -18.92048 -51.87069 36980 ft 487 kts 133°
2026-04-15 15:24 -18.96291 -51.81486 36986 ft 487 kts 133°
2026-04-15 15:24 -19.00527 -51.75907 36981 ft 486 kts 133°
2026-04-15 15:25 -19.04758 -51.70331 36983 ft 486 kts 133°
2026-04-15 15:25 -19.08985 -51.64755 36979 ft 486 kts 133°
2026-04-15 15:26 -19.13218 -51.59165 36986 ft 487 kts 133°
2026-04-15 15:26 -19.17416 -51.53616 36984 ft 486 kts 133°
2026-04-15 15:27 -19.21645 -51.48022 36984 ft 486 kts 133°
2026-04-15 15:27 -19.25866 -51.42433 36983 ft 486 kts 133°
2026-04-15 15:28 -19.30088 -51.36837 36978 ft 486 kts 133°
2026-04-15 15:28 -19.34306 -51.31240 36978 ft 486 kts 133°
2026-04-15 15:29 -19.38521 -51.25645 36977 ft 486 kts 133°
2026-04-15 15:29 -19.42732 -51.20048 36975 ft 485 kts 133°
2026-04-15 15:30 -19.46939 -51.14452 36982 ft 485 kts 133°
2026-04-15 15:30 -19.51116 -51.08891 36978 ft 485 kts 133°
2026-04-15 15:31 -19.55315 -51.03294 36979 ft 485 kts 133°
2026-04-15 15:31 -19.59514 -50.97694 36979 ft 485 kts 133°
2026-04-15 15:32 -19.63709 -50.92092 36977 ft 485 kts 133°
2026-04-15 15:32 -19.67898 -50.86494 36980 ft 485 kts 133°
2026-04-15 15:33 -19.72090 -50.80885 36977 ft 484 kts 133°
2026-04-15 15:33 -19.76275 -50.75283 36976 ft 484 kts 133°
2026-04-15 15:34 -19.80459 -50.69674 36969 ft 484 kts 133°
2026-04-15 15:34 -19.84640 -50.64067 36981 ft 484 kts 133°
2026-04-15 15:35 -19.88823 -50.58450 36978 ft 484 kts 132°
2026-04-15 15:35 -19.92999 -50.52840 36976 ft 484 kts 132°
2026-04-15 15:36 -19.97174 -50.47225 36983 ft 484 kts 132°
2026-04-15 15:36 -20.01313 -50.41653 36982 ft 483 kts 132°
2026-04-15 15:37 -20.05468 -50.36054 36990 ft 483 kts 132°
2026-04-15 15:37 -20.09634 -50.30435 37001 ft 483 kts 132°
2026-04-15 15:38 -20.14268 -50.25375 36990 ft 477 kts 142°
2026-04-15 15:38 -20.19172 -50.20617 36995 ft 477 kts 142°
2026-04-15 15:39 -20.24080 -50.15878 37003 ft 476 kts 142°
2026-04-15 15:39 -20.28990 -50.11135 36995 ft 476 kts 142°
2026-04-15 15:40 -20.33890 -50.06398 36996 ft 476 kts 142°
2026-04-15 15:40 -20.38789 -50.01656 36998 ft 476 kts 142°
2026-04-15 15:41 -20.43685 -49.96915 37004 ft 475 kts 142°
2026-04-15 15:41 -20.48548 -49.92201 37005 ft 475 kts 141°
2026-04-15 15:42 -20.53435 -49.87459 37001 ft 475 kts 141°
2026-04-15 15:42 -20.58325 -49.82710 37005 ft 475 kts 141°
2026-04-15 15:43 -20.63205 -49.77967 37006 ft 475 kts 141°
2026-04-15 15:43 -20.68091 -49.73213 37011 ft 475 kts 141°
2026-04-15 15:44 -20.72970 -49.68462 37027 ft 474 kts 141°
2026-04-15 15:44 -20.77053 -49.64483 37039 ft 474 kts 141°
2026-04-15 15:45 -20.82714 -49.58960 37057 ft 474 kts 141°
2026-04-15 15:45 -20.86756 -49.55014 37060 ft 474 kts 141°
2026-04-15 15:46 -20.91622 -49.50259 37062 ft 473 kts 141°
2026-04-15 15:46 -20.96481 -49.45506 37058 ft 473 kts 141°
2026-04-15 15:47 -21.01343 -49.40746 37049 ft 473 kts 141°
2026-04-15 15:47 -21.06199 -49.35988 37033 ft 473 kts 141°
2026-04-15 15:48 -21.11050 -49.31230 37022 ft 473 kts 141°
2026-04-15 15:48 -21.15900 -49.26469 37007 ft 473 kts 141°
2026-04-15 15:49 -21.20741 -49.21712 37012 ft 472 kts 141°
2026-04-15 15:49 -21.25548 -49.16983 37011 ft 472 kts 141°
2026-04-15 15:50 -21.30387 -49.12220 37012 ft 472 kts 140°
2026-04-15 15:50 -21.35219 -49.07458 37014 ft 472 kts 140°
2026-04-15 15:51 -21.40050 -49.02693 37016 ft 471 kts 140°
2026-04-15 15:51 -21.44868 -48.97937 37012 ft 471 kts 140°
2026-04-15 15:52 -21.49689 -48.93173 37021 ft 471 kts 140°
2026-04-15 15:52 -21.54506 -48.88408 37019 ft 470 kts 140°
2026-04-15 15:53 -21.59317 -48.83646 37017 ft 470 kts 140°
2026-04-15 15:53 -21.64124 -48.78882 37017 ft 470 kts 140°
2026-04-15 15:54 -21.68924 -48.74120 37017 ft 470 kts 140°
2026-04-15 15:54 -21.73725 -48.69353 37021 ft 470 kts 139°
2026-04-15 15:55 -21.78521 -48.64587 37023 ft 469 kts 139°
2026-04-15 15:55 -21.83319 -48.59815 37023 ft 469 kts 139°
2026-04-15 15:56 -21.88106 -48.55048 37021 ft 469 kts 139°
2026-04-15 15:56 -21.92902 -48.50269 37025 ft 469 kts 139°
2026-04-15 15:57 -21.97668 -48.45513 37033 ft 469 kts 139°
2026-04-15 15:57 -22.02456 -48.40733 37029 ft 469 kts 139°
2026-04-15 15:58 -22.07246 -48.35945 37029 ft 469 kts 139°
2026-04-15 15:58 -22.12033 -48.31155 37034 ft 470 kts 139°
2026-04-15 15:59 -22.16821 -48.26360 37040 ft 470 kts 139°
2026-04-15 15:59 -22.21608 -48.21562 37040 ft 470 kts 139°
2026-04-15 16:00 -22.26397 -48.16756 37040 ft 470 kts 138°
2026-04-15 16:00 -22.31151 -48.11981 36641 ft 462 kts 138°
2026-04-15 16:01 -22.33529 -48.09592 35482 ft 473 kts 138°
2026-04-15 16:01 -22.35974 -48.07133 34350 ft 485 kts 138°
2026-04-15 16:01 -22.38433 -48.04658 33717 ft 482 kts 138°
2026-04-15 16:01 -22.40903 -48.02173 32646 ft 488 kts 139°
2026-04-15 16:02 -22.43401 -47.99657 31670 ft 493 kts 139°
2026-04-15 16:02 -22.45915 -47.97123 30815 ft 495 kts 139°
2026-04-15 16:02 -22.48435 -47.94582 29872 ft 497 kts 139°
2026-04-15 16:02 -22.50968 -47.92026 28809 ft 499 kts 139°
2026-04-15 16:03 -22.53498 -47.89472 28095 ft 494 kts 138°
2026-04-15 16:03 -22.55962 -47.86984 27423 ft 488 kts 138°
2026-04-15 16:03 -22.58434 -47.84486 26709 ft 485 kts 138°
2026-04-15 16:03 -22.60889 -47.82005 25995 ft 481 kts 138°
2026-04-15 16:04 -22.63329 -47.79538 25285 ft 478 kts 138°
2026-04-15 16:04 -22.65749 -47.77088 24569 ft 475 kts 138°
2026-04-15 16:04 -22.68155 -47.74652 23866 ft 472 kts 137°
2026-04-15 16:04 -22.70545 -47.72231 23074 ft 469 kts 137°
2026-04-15 16:05 -22.72919 -47.69826 22331 ft 465 kts 137°
2026-04-15 16:05 -22.75268 -47.67444 21644 ft 460 kts 137°
2026-04-15 16:05 -22.77591 -47.65089 20970 ft 455 kts 137°
2026-04-15 16:05 -22.79891 -47.62753 20303 ft 451 kts 137°
2026-04-15 16:06 -22.82173 -47.60437 19648 ft 448 kts 137°
2026-04-15 16:06 -22.84434 -47.58140 18992 ft 445 kts 137°
2026-04-15 16:06 -22.86686 -47.55851 18336 ft 442 kts 137°
2026-04-15 16:06 -22.88925 -47.53575 17611 ft 440 kts 137°
2026-04-15 16:07 -22.91145 -47.51317 16957 ft 435 kts 137°
2026-04-15 16:07 -22.93341 -47.49082 16351 ft 431 kts 137°
2026-04-15 16:07 -22.97667 -47.44675 15071 ft 424 kts 137°
2026-04-15 16:08 -22.99803 -47.42498 14565 ft 418 kts 137°
2026-04-15 16:08 -23.01909 -47.40350 13991 ft 415 kts 137°
2026-04-15 16:08 -23.04005 -47.38212 13437 ft 410 kts 137°
2026-04-15 16:08 -23.06073 -47.36101 12788 ft 407 kts 137°
2026-04-15 16:09 -23.08125 -47.34006 12249 ft 402 kts 137°
2026-04-15 16:09 -23.10127 -47.31961 11698 ft 398 kts 137°
2026-04-15 16:09 -23.12120 -47.29924 11378 ft 389 kts 137°
2026-04-15 16:09 -23.14062 -47.27939 11169 ft 377 kts 137°
2026-04-15 16:10 -23.15945 -47.26013 10987 ft 365 kts 137°
2026-04-15 16:10 -23.17764 -47.24153 10804 ft 354 kts 137°
2026-04-15 16:10 -23.19533 -47.22343 10629 ft 344 kts 137°
2026-04-15 16:10 -23.21247 -47.20588 10468 ft 334 kts 137°
2026-04-15 16:11 -23.22917 -47.18878 10303 ft 326 kts 137°
2026-04-15 16:11 -23.24547 -47.17207 10144 ft 317 kts 137°
2026-04-15 16:11 -23.26131 -47.15584 9960 ft 310 kts 137°
2026-04-15 16:11 -23.27697 -47.13980 9616 ft 308 kts 137°
2026-04-15 16:12 -23.29255 -47.12382 9263 ft 308 kts 137°
2026-04-15 16:12 -23.30807 -47.10788 8913 ft 306 kts 137°
2026-04-15 16:12 -23.32350 -47.09207 8595 ft 304 kts 137°
2026-04-15 16:12 -23.33882 -47.07633 8256 ft 302 kts 137°
2026-04-15 16:13 -23.35409 -47.06065 7939 ft 301 kts 137°
2026-04-15 16:13 -23.36926 -47.04506 7610 ft 299 kts 137°
2026-04-15 16:13 -23.38436 -47.02955 7292 ft 298 kts 137°
2026-04-15 16:13 -23.39923 -47.01426 6962 ft 296 kts 137°
2026-04-15 16:14 -23.41418 -46.99890 6650 ft 295 kts 136°
2026-04-15 16:14 -23.42896 -46.98370 6433 ft 289 kts 137°
2026-04-15 16:14 -23.44342 -46.96882 6281 ft 282 kts 136°
2026-04-15 16:14 -23.45746 -46.95436 6146 ft 274 kts 136°
2026-04-15 16:15 -23.47110 -46.94033 6009 ft 265 kts 136°
2026-04-15 16:15 -23.48349 -46.92611 5937 ft 254 kts 121°
2026-04-15 16:15 -23.48899 -46.90846 5905 ft 242 kts 99°
2026-04-15 16:15 -23.49188 -46.89081 5842 ft 232 kts 104°
2026-04-15 16:16 -23.49445 -46.87380 5750 ft 223 kts 94°
2026-04-15 16:16 -23.49486 -46.85723 5693 ft 213 kts 91°
2026-04-15 16:16 -23.49486 -46.84160 5674 ft 200 kts 90°
2026-04-15 16:16 -23.49483 -46.82678 5621 ft 193 kts 90°
2026-04-15 16:17 -23.49475 -46.81224 5521 ft 189 kts 91°
2026-04-15 16:17 -23.49570 -46.79820 5364 ft 185 kts 97°
2026-04-15 16:17 -23.49716 -46.78437 5204 ft 182 kts 97°
2026-04-15 16:17 -23.49920 -46.77094 5122 ft 177 kts 102°
2026-04-15 16:18 -23.50162 -46.75782 5138 ft 177 kts 102°
2026-04-15 16:18 -23.50551 -46.74530 5068 ft 174 kts 126°
2026-04-15 16:18 -23.51413 -46.73610 5063 ft 176 kts 141°
2026-04-15 16:18 -23.52367 -46.72843 4871 ft 162 kts 144°
2026-04-15 16:19 -23.53283 -46.72169 4623 ft 156 kts 146°
2026-04-15 16:19 -23.54174 -46.71542 4421 ft 153 kts 146°
2026-04-15 16:19 -23.55067 -46.70921 4243 ft 152 kts 146°
2026-04-15 16:19 -23.55954 -46.70302 4057 ft 151 kts 146°
2026-04-15 16:20 -23.56845 -46.69683 3901 ft 151 kts 146°
2026-04-15 16:20 -23.57722 -46.69073 3702 ft 150 kts 146°
2026-04-15 16:20 -23.58599 -46.68465 3488 ft 149 kts 146°
2026-04-15 16:20 -23.59487 -46.67850 3294 ft 153 kts 146°
2026-04-15 16:21 -23.60368 -46.67222 3082 ft 150 kts 145°
2026-04-15 16:21 -23.61250 -46.66622 2839 ft 149 kts 146°
2026-04-15 16:21 -23.62113 -46.66036 2645 ft 142 kts 145°
2026-04-15 16:21 -23.62841 -46.65526 2610 ft 93 kts 147°
2026-04-15 16:22 -23.63119 -46.65369 2612 ft 6 kts 183°
2026-04-15 16:22 -23.63161 -46.65379 2609 ft 5 kts 202°
2026-04-15 16:22 -23.63180 -46.65423 2605 ft 5 kts 289°
2026-04-15 16:22 -23.63146 -46.65459 2605 ft 8 kts 327°
2026-04-15 16:23 -23.63090 -46.65497 2605 ft 11 kts 328°
2026-04-15 16:23 -23.63014 -46.65522 2605 ft 12 kts 346°
2026-04-15 16:23 -23.62933 -46.65567 2605 ft 14 kts 329°
2026-04-15 16:23 -23.62847 -46.65632 2605 ft 16 kts 326°
2026-04-15 16:24 -23.62746 -46.65702 2605 ft 19 kts 328°
2026-04-15 16:24 -23.62683 -46.65743 2604 ft 9 kts 329°
2026-04-15 16:24 -23.62624 -46.65783 2604 ft 11 kts 327°
2026-04-15 16:24 -23.62606 -46.65796 2604 ft 3 kts 328°
2026-04-15 16:25 -23.62581 -46.65813 2604 ft 5 kts 328°
2026-04-15 16:25 -23.62547 -46.65836 2604 ft 0 kts 327°
2026-04-15 16:25 -23.62539 -46.65843 2604 ft 3 kts 320°
2026-04-15 16:25 -23.62538 -46.65867 2604 ft 5 kts 251°
2026-04-15 16:26 -23.62556 -46.65902 2603 ft 3 kts 238°
2026-04-15 16:26 -23.62561 -46.65910 2603 ft 0 kts 238°
2026-04-15 16:26 -23.62563 -46.65915 2603 ft 0 kts 238°
2026-04-15 16:26 -23.62566 -46.65919 2603 ft 0 kts 238°
2026-04-15 16:27 -23.62569 -46.65924 2603 ft 0 kts 237°